Regional Weather Roundup
Issued by NWS

Home | Current Version | Previous Version | Text Only | Print | Product List | Glossary On
Versions: 1 2 3 4 5 6 7 8 9 10 11 12 13 14 15 16 17 18 19 20 21 22 23 24 25 26 27 28 29 30 31 32 33 34 35 36 37 38 39 40 41 42 43 44 45 46 47 48 49 50
000
ASUS43 KTOP 271008
RWRKS

WEATHER ROUNDUP FOR KANSAS
NATIONAL WEATHER SERVICE GOODLAND KS
500 AM CDT MON MAR 27 2017

NOTE:  "FAIR" INDICATES FEW OR NO CLOUDS BELOW 12,000 FEET WITH NO
SIGNIFICANT WEATHER AND/OR OBSTRUCTIONS TO VISIBILITY.

KSZ001>006-013>018-027>032-041>047-271100-
NORTHWEST KANSAS

CITY           SKY/WX    TMP DP  RH WIND       PRES   REMARKS
GOODLAND       CLEAR     34  33  96 W8        29.92S
HAYS             N/A     46  44  93 NW7       29.94R
HILL CITY      MOCLDY    36  36 100 CALM      29.95R FOG
RUSSELL        CLOUDY    46  44  93 N7        29.91S
$$

KSZ061>065-074>080-084>089-271100-
SOUTHWEST KANSAS

CITY           SKY/WX    TMP DP  RH WIND       PRES   REMARKS
DODGE CITY     FOG       38  37  97 NW12      29.93R VSB 1/2 WCI  30
ELKHART          N/A     35  28  75 W7          N/A
GARDEN CITY    CLEAR     33  32  96 NW9       29.94S
GREAT BEND     CLOUDY    46  44  93 N9        29.91
LIBERAL        CLEAR     36  30  80 NW9       29.94S
PRATT          CLOUDY    43  42  95 N13       29.89R
$$

KSZ066>073-081>083-090>101-271100-
SOUTHEAST KANSAS

CITY           SKY/WX    TMP DP  RH WIND       PRES   REMARKS
CHANUTE        CLOUDY    50  48  93 N9        29.80S
COFFEYVILLE    CLOUDY    53  52  96 NW12      29.78R
HUTCHINSON     CLOUDY    47  45  93 N12       29.87R
MEDICINE LODGE   N/A     47  44  90 N8        29.88R
NEWTON         CLOUDY    46  44  93 N18       29.86F
PARSONS        CLOUDY    53  51  93 NW13      29.79R
WICHITA INTL   CLOUDY    48  46  93 N14       29.85S
WICHITA JABRA  CLOUDY    47  46  97 N13       29.85S
WICHITA MCCONL CLOUDY    48  46  92 N15       29.85R
WINFIELD       CLOUDY    50  47  89 N13       29.85R
$$

KSZ007>012-019>026-033>040-048>060-102>105-271100-
NORTHEAST KANSAS

CITY           SKY/WX    TMP DP  RH WIND       PRES   REMARKS
CONCORDIA      CLOUDY    44  44 100 NE10      29.90F
EMPORIA        LGT RAIN  46  46 100 NW12      29.84R FOG
LAWRENCE       CLOUDY    47  46  97 N6        29.86R
MANHATTAN      LGT RAIN  46  45  96 N3        29.90R FOG
MARYSVILLE     CLOUDY    45  45 100 N7        29.90F FOG
OLATHE IND     CLOUDY    47  45  93 N9        29.83S
OLATHE EXE     LGT RAIN  46  46 100 N8        29.82R
SALINA         CLOUDY    48  46  93 N14       29.90S FOG
TOPEKA BILLARD RAIN      46  46 100 NW7       29.87R FOG
TOPEKA FORBES  RAIN      47  45  93 N10       29.86R FOG
$$



USA.gov is the U.S. government's official web portal to all federal, state and local government web resources and services.